Wind_Speed
9 9 9 10 11 12 7 3 3 3 2 7 8 8 11 12 11 12 13 11 9 9 10 10 10 10 11 12 15 17 12 10 8 6 7 10 20 24 24 26 25 22 22 19 19 20 21 22 23 23 24 22 21 22 23 24 24 24 23 23 22 22 22 22 22 22 21 21 20 20 19 19 18 17 17 16 15 14 14 14 13 12 12 12 12 12 11 11 11 11 11 10 10 9 9 9 9
9 12 11 11 11 10 4 3 2 3 6 8 9 10 11 12 13 13 14 13 10 10 11 12 13 14 16 17 16 19 17 16 17 13 11 21 24 22 24 25 25 25 24 21 20 21 21 21 22 23 22 21 21 21 22 22 23 22 22 21 22 21 21 21 21 21 20 19 19 18 18 18 17 17 16 15 14 14 13 13 12 12 12 12 11 11 11 10 11 10 10 10 10 9 9 9 9
9 13 9 6 7 6 4 4 0 7 8 9 9 10 12 12 14 14 14 13 11 11 11 13 13 13 16 18 16 16 15 15 21 16 13 24 21 19 24 23 24 25 25 24 22 22 23 21 21 23 22 20 21 21 21 21 22 21 21 20 20 20 19 19 20 19 18 18 17 17 16 16 15 15 15 14 13 13 13 12 12 12 12 12 11 11 11 11 11 10 10 9 9 9 9 8 8
8 11 9 5 4 4 4 3 2 7 8 8 8 10 12 13 14 14 14 14 12 11 11 12 12 11 15 18 15 14 14 13 19 17 12 19 21 23 25 23 23 24 25 24 24 23 23 23 22 22 22 21 21 21 21 21 20 20 20 20 19 18 18 18 18 18 17 16 15 15 14 14 14 14 14 13 13 12 12 12 11 12 12 11 11 11 11 11 11 10 10 9 9 8 8 8 7
10 11 10 7 3 1 3 1 4 7 8 8 8 10 12 14 15 14 14 14 13 12 12 11 11 12 15 15 11 9 13 13 17 19 17 21 26 28 25 23 22 24 24 22 24 24 23 23 22 22 22 22 21 21 21 20 19 19 19 19 18 17 17 16 16 15 15 14 14 14 13 12 13 13 12 12 12 11 11 11 11 11 11 11 11 11 11 11 10 10 9 9 8 7 7 7 6
13 11 9 8 4 4 3 4 7 8 9 9 9 10 13 14 15 15 15 15 15 14 14 13 13 14 13 13 10 10 14 14 15 19 22 26 27 28 27 24 22 24 24 22 23 24 24 23 22 22 21 21 21 20 20 20 19 19 19 18 18 17 16 15 14 14 13 13 13 13 13 12 11 11 11 11 11 10 10 11 11 10 11 11 10 10 10 10 9 9 8 8 7 6 6 6 5
11 8 4 5 4 4 1 8 9 9 11 11 11 12 13 14 14 15 15 14 14 14 14 14 15 13 11 11 11 15 18 17 17 20 24 27 26 28 28 25 23 24 23 22 23 23 23 23 21 21 20 20 20 20 19 19 19 19 18 18 17 16 16 15 14 13 13 13 13 13 12 12 11 10 10 10 10 9 9 10 10 9 10 10 9 9 9 8 8 8 8 7 6 6 5 5 5
9 5 2 4 4 2 3 9 10 9 11 12 12 12 12 13 13 13 14 12 12 13 14 15 15 14 13 13 11 15 21 21 22 25 27 26 25 26 27 24 23 23 22 23 23 23 23 23 22 20 20 20 19 19 19 19 19 18 18 17 16 16 15 14 14 13 13 12 12 12 12 11 10 10 10 10 10 9 9 9 9 9 9 9 8 8 8 8 7 7 7 6 5 5 4 4 5
6 4 3 4 4 1 6 9 10 10 11 12 12 13 13 14 13 13 14 13 12 13 15 16 15 14 15 16 13 13 19 24 26 27 25 24 23 24 24 23 23 24 23 23 23 22 22 22 21 21 20 19 20 19 19 19 18 18 17 16 16 15 14 13 13 13 12 12 12 11 11 11 10 10 10 10 10 9 9 8 8 8 8 8 7 7 6 6 6 5 5 5 5 5 4 5 5
4 2 3 4 3 3 6 8 9 10 12 12 12 14 13 13 12 13 14 14 15 15 17 16 15 16 16 16 13 12 18 24 26 24 23 22 22 22 23 23 23 24 23 23 22 22 22 21 21 20 20 19 19 19 19 18 17 17 16 16 15 14 13 12 12 12 11 11 10 10 10 10 10 10 10 9 9 8 7 6 7 6 6 6 5 5 4 3 4 4 4 5 5 6 6 6 6
3 2 2 3 2 5 4 7 8 10 12 11 12 12 11 13 13 14 15 16 16 16 17 14 14 16 16 14 11 15 22 24 24 23 22 20 20 22 23 22 21 22 23 22 21 22 22 20 20 19 19 19 19 19 19 18 17 17 16 16 15 14 13 12 12 11 11 10 10 9 9 9 9 9 8 8 7 6 5 5 4 4 3 3 2 3 2 2 2 3 3 4 4 5 6 6 7
2 2 3 2 4 5 3 6 8 10 12 11 11 11 10 12 13 14 15 15 15 15 14 12 12 13 15 13 9 17 23 22 22 23 21 20 20 21 22 22 21 22 22 22 21 22 21 19 18 18 18 18 19 20 19 18 18 16 16 15 15 14 13 12 12 10 10 9 9 8 9 9 8 8 8 7 6 5 4 3 3 2 1 1 0 1 1 2 2 3 4 5 5 5 6 6 6
2 1 2 3 3 4 4 4 7 9 9 9 10 11 10 11 13 13 13 14 14 14 14 12 13 12 13 12 10 15 19 20 22 21 19 19 19 20 22 22 21 22 22 21 21 21 20 19 17 18 18 18 19 19 19 18 18 16 16 15 14 14 13 12 11 10 10 9 8 7 8 8 7 7 7 6 5 5 4 3 2 1 1 1 1 1 3 3 4 5 5 6 6 6 7 7 7
4 2 2 2 2 2 3 3 5 6 7 9 9 11 11 10 11 9 11 15 15 13 13 13 13 13 12 11 10 10 16 21 22 19 18 18 18 20 22 22 21 21 21 20 21 21 20 18 18 19 18 18 18 18 18 17 16 16 15 15 14 13 13 12 10 9 10 9 8 7 7 6 7 6 5 5 5 4 3 2 2 2 2 2 2 2 3 5 5 6 7 7 7 8 8 8 8
5 4 3 4 4 4 5 4 6 6 6 9 9 11 11 11 10 9 12 14 13 11 13 14 11 11 11 11 10 11 18 23 23 20 19 18 18 21 22 20 20 20 20 20 20 20 19 18 18 18 18 18 18 17 17 17 16 15 14 14 13 12 12 11 11 10 9 9 7 6 6 5 5 4 4 4 4 4 3 2 2 3 4 4 5 4 4 6 7 7 8 8 8 8 9 9 9
6 5 3 4 6 7 8 3 5 4 7 10 9 11 12 12 10 11 12 11 11 10 11 10 7 10 12 11 14 19 22 23 22 22 20 20 19 21 21 18 18 18 18 18 18 18 19 19 18 17 17 17 17 16 17 17 16 15 14 12 11 11 11 11 10 9 9 8 7 5 4 4 4 4 4 4 4 5 4 4 5 6 6 6 7 6 5 7 7 8 8 9 9 9 8 9 9
5 4 5 2 3 5 9 6 3 2 8 10 10 10 10 11 10 11 11 10 10 9 9 8 8 12 14 15 21 24 23 21 22 22 20 18 18 18 18 17 16 15 16 16 16 17 17 18 17 16 16 16 15 15 16 16 15 15 14 12 11 11 10 10 9 8 8 7 6 5 3 3 5 6 6 6 5 6 7 6 7 8 8 9 9 8 8 8 9 8 9 9 9 8 8 9 8
4 4 6 2 3 4 10 14 7 3 8 8 9 10 10 11 11 9 9 10 10 9 10 10 12 15 18 22 24 24 22 22 21 20 18 16 16 16 15 15 14 14 15 14 15 16 16 16 16 16 16 15 14 15 16 14 14 14 13 11 10 10 9 9 8 8 8 7 6 6 5 6 8 7 7 7 7 8 7 7 8 8 9 10 11 11 10 10 10 9 9 10 9 8 8 8 7
4 4 4 2 4 4 10 14 11 7 7 7 9 10 10 13 11 5 5 10 10 11 12 13 16 18 21 24 23 22 21 20 20 19 17 16 16 15 14 14 14 14 14 14 14 14 15 15 14 15 15 15 14 15 15 14 14 13 11 11 10 10 9 9 8 7 7 7 8 7 6 7 8 7 7 7 7 8 7 8 10 9 9 10 11 12 11 11 9 8 8 8 8 8 9 8 6
5 4 2 4 5 7 11 11 12 11 9 9 10 9 9 13 12 4 4 9 10 11 11 13 17 19 20 20 21 22 20 19 19 17 15 15 15 15 14 14 14 14 14 13 13 13 13 14 14 14 15 14 13 14 13 13 14 13 12 11 11 10 9 9 7 8 9 10 10 8 7 8 8 8 8 9 8 8 9 9 11 11 10 10 11 11 11 9 7 6 7 7 7 7 9 8 6
2 1 1 4 5 7 11 10 12 11 9 10 9 9 10 13 13 8 6 5 7 10 11 13 16 19 20 19 19 20 19 18 18 17 15 14 13 14 14 14 14 13 13 13 13 13 13 14 14 14 15 14 13 13 12 12 13 13 13 13 11 11 11 11 10 11 12 12 10 8 9 8 8 8 9 10 9 8 9 9 10 11 11 11 11 11 11 9 7 7 8 8 7 7 7 8 7
1 5 5 5 5 6 10 10 11 10 9 9 8 9 11 13 11 11 12 2 3 8 11 15 16 18 19 19 18 18 18 16 16 17 17 15 13 13 13 13 13 13 12 12 12 12 12 13 14 14 14 14 12 12 12 12 14 13 14 14 13 13 13 12 12 13 13 11 10 8 10 9 7 7 7 9 8 8 9 9 9 10 11 11 11 11 11 12 9 8 9 9 8 8 7 8 8
1 6 3 2 6 7 10 9 9 9 9 9 8 9 9 13 12 12 12 6 5 11 13 15 16 18 19 18 17 16 15 14 14 15 16 16 14 13 14 12 12 12 11 11 12 12 12 12 13 13 13 13 11 10 11 13 14 13 12 13 12 11 10 9 10 12 11 10 10 9 10 8 6 6 6 8 8 8 8 8 8 9 11 11 10 10 11 12 11 9 9 9 10 10 9 9 8
2 5 2 2 7 8 9 9 8 8 10 9 8 10 8 11 12 13 14 11 8 14 14 15 16 18 19 17 16 15 15 14 14 14 14 14 13 13 14 12 11 11 10 10 10 11 11 11 12 12 12 12 11 11 10 11 11 11 10 10 10 8 8 7 8 9 10 10 9 9 10 7 6 7 7 8 9 8 8 7 8 9 11 11 11 11 9 10 11 11 10 10 10 11 11 11 9
4 5 4 5 8 9 9 8 9 9 9 9 10 11 10 11 11 11 13 11 13 15 14 15 15 16 16 15 16 14 13 14 14 15 13 12 12 12 13 12 12 11 11 11 10 10 11 11 11 11 11 11 10 10 9 8 9 9 8 8 8 8 8 7 8 8 9 9 7 7 9 8 8 7 7 8 8 8 8 7 9 11 11 11 12 12 10 9 10 11 11 11 12 12 13 12 10
6 5 5 7 9 10 9 9 10 9 8 9 12 12 12 11 10 11 12 12 13 14 14 14 14 15 14 14 14 13 12 14 14 14 13 12 12 12 13 13 12 12 11 11 10 10 10 10 11 10 10 10 9 9 8 7 7 8 8 8 8 8 8 8 9 9 9 8 7 7 8 7 7 7 7 7 7 8 8 10 12 12 11 11 11 11 10 9 10 10 10 12 12 13 14 13 11
7 5 7 8 10 9 8 10 10 9 9 10 12 12 12 11 8 9 11 12 12 14 13 13 13 13 13 13 13 11 11 13 13 14 13 12 12 12 12 13 12 12 11 11 10 10 10 11 11 10 9 9 9 8 7 7 7 7 6 7 7 7 8 8 8 8 8 9 7 6 6 6 7 7 8 9 10 10 11 13 13 13 13 12 11 12 11 11 11 12 13 14 13 14 15 14 12
6 8 10 9 9 9 9 11 9 7 9 12 12 12 12 10 9 10 12 12 12 13 13 13 13 11 12 13 13 9 9 12 13 13 12 11 12 11 11 11 12 12 11 10 10 10 11 11 11 11 10 9 9 8 7 8 8 7 6 6 7 6 6 6 7 7 9 9 7 6 6 8 10 10 11 12 12 12 13 13 13 13 14 13 12 12 13 14 15 16 17 16 15 15 16 16 15
9 9 9 10 10 9 9 9 8 7 8 11 11 10 10 9 10 12 13 12 12 12 12 13 12 10 11 12 11 9 8 11 12 12 13 12 12 12 11 10 11 11 11 12 11 11 11 11 11 11 11 11 10 9 8 8 8 8 7 7 7 6 6 6 7 8 8 8 7 8 10 12 13 14 14 14 13 13 14 14 14 14 13 13 12 12 15 17 17 17 17 16 16 16 16 17 18
8 9 7 9 8 7 9 7 8 8 7 9 8 4 8 9 11 12 12 13 13 12 11 11 11 10 10 10 9 9 9 10 10 11 13 12 12 13 12 11 11 10 11 12 11 11 11 11 11 11 12 12 11 10 9 9 8 7 7 7 7 7 7 7 8 8 8 8 8 9 10 12 13 14 13 13 13 13 13 14 15 15 14 14 13 14 16 17 16 16 15 14 14 14 15 16 17
6 9 6 6 5 6 9 8 9 9 6 8 5 1 6 10 11 12 11 13 12 11 11 11 11 11 10 10 9 9 10 9 10 11 12 13 12 13 13 13 14 11 11 13 12 11 11 11 10 10 12 13 12 11 10 9 8 7 7 7 6 7 6 7 8 8 8 8 8 9 10 11 12 13 12 13 14 14 14 14 15 16 16 16 15 16 17 15 13 13 12 13 13 13 14 15 16
8 7 6 6 5 7 10 9 10 8 7 9 4 2 8 10 11 12 11 12 12 11 11 11 11 12 10 10 9 9 9 9 11 12 12 13 11 11 12 12 13 10 10 13 12 11 11 10 11 10 12 14 13 12 11 9 8 8 8 6 6 6 6 7 7 8 9 8 8 9 9 10 11 12 12 14 15 15 14 15 17 17 17 17 16 16 17 15 13 12 11 12 13 14 15 16 17
7 5 6 7 6 7 8 9 11 10 9 9 4 2 7 10 11 12 12 12 12 11 10 11 11 11 11 10 9 9 9 9 9 10 11 11 10 10 10 9 10 10 11 12 12 12 11 11 12 11 12 14 13 12 11 10 9 10 9 7 6 6 6 6 7 9 10 9 9 10 10 11 10 11 12 12 14 15 15 17 18 18 18 19 18 17 17 17 14 13 14 13 14 15 15 16 18
6 6 7 7 8 6 7 9 10 9 7 8 7 4 7 12 12 13 14 13 13 12 11 12 10 9 10 9 10 10 10 9 8 10 12 11 10 11 10 9 10 10 11 12 12 12 13 12 12 11 11 12 13 13 12 10 10 10 9 7 7 6 6 6 7 9 11 11 10 9 11 11 9 10 10 10 12 13 13 14 16 16 17 19 18 17 17 17 16 15 16 16 15 16 16 17 19
8 8 7 7 9 8 7 8 9 10 6 5 6 6 9 13 12 12 14 14 13 13 12 12 11 10 10 9 10 10 10 10 9 11 13 11 11 12 12 12 11 12 12 12 12 13 13 12 11 11 11 12 13 13 11 10 9 8 6 6 6 7 7 8 8 10 11 11 10 10 11 10 8 9 9 9 11 11 11 11 12 14 16 16 16 16 15 16 17 17 17 18 18 19 19 20 21
13 12 10 8 10 8 7 6 8 11 8 6 7 5 10 12 12 12 13 13 12 12 13 12 12 12 10 10 9 10 11 10 11 13 14 12 12 13 12 13 13 13 13 14 13 13 13 13 12 11 11 11 12 12 11 11 10 8 7 7 6 7 8 9 9 10 10 10 10 10 10 8 8 9 9 9 9 10 11 10 11 12 12 14 15 15 15 15 17 18 18 18 19 20 19 19 19
16 14 11 11 11 8 9 8 9 10 8 8 8 7 10 11 12 12 12 12 12 12 13 12 13 12 11 11 11 12 11 11 13 15 16 13 13 14 12 13 13 12 14 15 15 14 13 14 13 12 12 12 13 13 12 11 9 7 7 6 6 6 7 8 9 9 9 10 9 8 7 8 9 10 9 9 9 9 10 10 12 12 11 11 13 14 14 15 15 16 16 16 16 16 16 16 16
16 14 10 11 11 8 12 11 11 11 7 6 8 8 8 9 12 12 12 12 11 11 12 12 14 13 11 13 13 12 11 11 13 15 17 16 15 15 13 13 15 14 15 16 16 16 14 14 14 13 13 13 13 14 12 10 8 7 6 6 6 7 8 9 8 7 7 8 8 6 6 9 9 9 9 10 10 11 11 12 13 13 13 13 13 15 15 15 16 16 16 15 15 15 15 15 14
11 9 8 8 9 9 11 13 11 9 5 5 8 8 6 7 9 10 11 11 9 10 12 11 13 13 11 13 14 13 13 12 13 14 16 18 17 17 15 15 16 15 15 16 16 17 17 17 16 15 15 14 12 11 11 10 8 7 5 4 4 6 7 7 6 6 7 7 7 8 10 11 9 8 10 11 11 12 12 14 14 15 15 15 15 16 16 17 17 17 16 16 15 15 16 15 14
6 6 7 6 10 11 9 11 12 10 6 6 7 8 8 8 8 9 11 11 9 10 12 11 12 13 12 13 13 14 15 15 14 15 16 18 19 19 17 16 16 15 15 15 16 17 17 17 17 17 16 15 13 10 10 11 8 5 4 3 4 5 6 6 6 6 7 7 8 8 9 8 7 8 9 10 11 12 12 13 14 14 15 15 15 16 17 17 16 16 15 15 14 13 13 14 13
5 11 10 7 11 13 9 11 13 11 9 8 7 6 5 6 6 7 8 10 10 10 11 11 11 12 12 13 13 14 15 15 15 15 14 16 18 18 18 18 18 17 16 16 16 16 16 17 17 17 15 14 13 11 10 9 7 6 5 3 3 4 4 6 6 6 7 8 9 9 10 9 8 8 9 10 11 12 12 13 13 13 14 14 15 15 16 16 16 16 14 14 13 12 12 12 11
8 13 16 15 12 13 14 16 15 9 9 9 8 6 4 7 5 2 2 6 10 11 11 12 10 11 11 11 13 13 14 14 13 15 14 15 17 18 19 19 19 19 18 17 17 16 16 16 17 16 15 14 12 11 10 9 8 6 5 4 3 3 4 5 4 5 7 9 9 9 10 10 9 9 9 10 11 11 12 12 12 12 13 13 13 14 14 15 15 14 12 11 10 10 10 10 10
7 11 16 20 13 14 18 18 15 7 6 9 10 8 4 7 8 5 1 6 9 10 12 12 10 11 11 10 11 12 13 14 13 14 14 15 16 18 18 18 19 19 18 18 17 17 17 17 17 16 15 14 13 12 11 9 8 6 4 4 3 3 4 4 3 5 8 8 7 7 9 9 8 9 9 10 10 10 11 11 11 12 12 12 12 11 12 12 11 10 9 9 9 9 8 9 10
9 11 15 14 15 12 12 11 12 7 6 7 12 12 6 6 10 13 12 8 10 11 12 11 10 12 12 12 12 13 13 14 13 12 13 14 16 18 18 18 18 18 19 19 18 17 17 17 17 16 15 15 14 13 11 9 8 6 4 3 2 3 4 4 4 7 8 6 5 7 8 9 8 8 8 9 8 8 9 10 10 11 11 11 11 10 11 11 10 9 9 7 7 9 9 10 11
11 7 7 12 14 14 12 7 7 8 7 7 10 12 8 5 8 13 16 14 12 15 15 13 12 13 13 13 14 15 14 14 14 14 13 14 16 19 20 19 18 19 20 19 18 18 17 17 17 16 16 15 14 13 11 9 7 6 4 3 2 3 4 4 5 7 6 5 6 7 8 8 8 8 8 8 8 8 8 9 9 10 10 10 11 10 10 11 11 11 10 8 7 9 11 12 13
13 8 10 13 14 10 10 7 5 5 7 8 8 8 6 4 5 10 12 14 14 15 14 13 13 14 13 13 14 14 13 12 14 14 13 15 19 20 21 20 19 19 20 19 18 18 18 17 17 17 16 15 14 13 11 8 7 5 4 3 3 3 3 4 5 6 6 6 6 7 8 7 8 9 9 8 9 8 8 8 9 10 9 9 10 10 10 11 11 11 11 10 10 11 12 14 15
13 9 12 12 9 6 7 6 6 6 6 8 10 9 8 7 6 9 11 14 16 14 12 13 15 15 14 13 14 14 12 10 12 13 12 17 21 21 22 22 20 20 20 19 19 19 19 18 18 17 16 16 15 13 11 9 7 5 4 4 3 4 4 5 5 6 6 6 6 7 7 7 8 9 9 9 9 9 8 9 9 9 9 9 9 9 10 10 10 11 11 12 13 13 13 15 15
10 5 9 7 4 4 5 5 6 6 6 8 12 14 13 9 7 9 12 17 20 17 15 16 17 16 15 14 15 14 11 11 12 11 11 15 17 19 22 21 21 22 21 20 20 19 19 19 19 18 16 16 15 13 11 10 8 7 6 5 4 4 4 5 6 6 6 6 6 6 7 7 8 8 8 8 8 8 9 9 8 8 9 9 9 9 10 10 10 11 11 12 14 14 13 13 14
9 6 8 7 5 5 5 6 6 7 8 9 12 14 11 8 8 9 10 14 18 18 16 18 19 18 16 17 16 13 12 14 13 11 10 12 13 16 20 21 21 23 22 22 21 20 20 20 20 19 17 16 15 13 12 11 10 9 7 6 5 4 4 5 5 5 6 5 5 6 7 7 8 8 8 8 8 8 8 9 8 9 9 9 9 9 10 9 10 11 11 11 12 12 13 13 14
8 7 7 7 7 6 6 7 6 7 9 10 14 12 8 7 6 8 10 11 14 18 16 16 19 20 16 16 17 14 14 15 13 11 11 11 12 15 20 22 22 23 24 23 23 22 22 22 21 20 18 17 15 14 13 12 10 9 8 6 5 5 4 5 5 5 5 4 5 6 7 8 9 9 9 8 8 8 9 9 9 9 9 9 9 9 9 8 9 10 11 11 12 12 13 13 14
8 9 9 9 7 5 6 6 6 7 7 10 14 10 6 4 0 2 4 1 6 12 11 7 10 15 13 13 16 16 15 15 12 12 13 12 14 17 19 22 23 23 25 24 24 24 23 23 22 21 19 18 16 15 13 12 11 10 9 7 6 6 5 5 5 5 5 5 6 6 7 8 9 9 9 9 9 9 9 9 9 9 9 9 9 9 9 8 9 10 11 11 12 12 12 12 13
9 9 10 9 9 8 6 7 7 7 6 6 7 5 3 2 1 1 1 5 5 4 5 6 6 10 11 8 13 14 13 13 14 14 13 13 17 19 19 21 23 24 25 25 25 26 25 24 23 22 21 19 17 16 14 13 12 11 10 8 7 7 6 5 5 6 6 6 6 6 7 8 9 10 10 10 9 9 9 10 10 10 10 9 10 10 9 10 10 11 11 11 11 12 11 11 12
8 9 10 11 10 9 7 8 9 8 7 5 5 6 5 4 3 7 8 6 5 3 1 4 5 11 13 9 11 12 11 12 14 14 12 12 17 20 21 22 24 25 26 26 27 28 27 26 25 23 22 20 18 17 15 13 12 11 10 9 8 7 7 7 7 7 6 6 6 7 8 8 9 10 10 9 9 10 10 11 11 11 11 10 10 10 10 10 11 11 11 11 11 11 10 11 12
8 8 10 10 11 9 5 6 7 7 8 5 6 9 8 6 4 7 11 9 9 8 5 5 6 10 11 11 12 13 12 11 13 14 14 13 16 20 22 24 26 26 27 27 28 28 28 27 27 25 24 22 20 18 16 14 13 12 10 10 9 9 8 8 7 7 6 6 7 7 8 8 8 9 9 10 10 11 11 12 12 12 12 12 12 11 11 11 11 11 11 10 10 9 10 11 12
13 8 9 9 8 7 5 5 5 6 7 5 7 10 8 6 4 8 12 10 10 10 7 5 7 9 9 9 11 12 9 7 8 12 13 13 16 21 23 24 25 26 27 28 28 27 26 27 27 26 25 24 21 19 17 15 14 12 11 10 10 10 9 8 8 7 7 7 7 7 8 8 9 9 9 10 10 11 12 12 12 12 12 13 12 12 12 12 12 12 11 10 9 9 10 11 11
14 11 8 7 6 6 6 5 4 6 6 5 7 8 4 2 4 11 12 9 9 10 8 5 4 6 9 8 8 9 9 8 7 9 13 13 16 23 25 25 26 27 27 27 27 26 25 25 26 26 25 24 22 19 17 16 14 12 10 10 10 10 9 9 8 8 8 8 7 7 8 9 9 10 10 10 11 11 12 12 12 13 13 13 13 12 12 11 12 11 11 10 10 9 10 11 11
11 10 8 7 6 5 6 7 6 6 6 4 6 5 2 5 6 11 10 7 8 8 8 6 2 3 7 8 8 7 9 12 12 12 14 15 17 23 25 25 26 26 27 27 27 26 25 25 25 25 25 25 22 20 18 17 15 12 11 10 10 10 9 9 9 9 9 8 8 9 10 10 11 11 10 11 12 12 12 13 13 13 13 14 14 14 13 12 11 11 11 11 10 10 11 12 12
11 8 8 8 7 6 7 6 7 6 6 5 6 3 4 6 6 10 9 6 8 7 4 6 6 4 2 4 6 6 6 9 12 14 15 14 16 22 24 24 25 25 26 28 27 26 26 25 25 25 25 24 22 20 19 17 15 13 12 11 10 10 10 10 10 9 9 9 10 12 12 12 12 11 10 11 11 12 12 13 14 14 15 15 15 15 14 13 12 12 11 11 10 10 11 12 12
Wind_Direction
308 296 272 250 242 250 253 238 254 215 150 76 78 79 76 77 87 90 88 87 82 80 81 87 77 71 81 78 74 66 46 38 59 90 97 134 145 141 138 136 131 122 117 115 118 119 119 120 119 122 122 122 121 117 115 115 115 115 116 115 115 115 115 114 115 116 115 115 114 114 113 112 111 109 109 108 109 109 111 111 111 110 106 102 97 92 87 82 78 78 78 74 74 72 71 68 66
301 284 259 246 253 262 274 212 234 97 89 77 77 70 77 76 78 78 80 81 77 87 93 99 96 95 94 86 80 70 61 61 76 84 105 132 135 133 136 134 130 127 123 121 119 118 119 121 122 122 120 121 119 115 114 114 114 114 115 115 115 116 116 115 115 114 113 113 111 111 111 111 110 109 108 108 109 108 108 108 106 104 101 98 93 91 87 84 83 80 78 75 72 68 65 61 57
294 283 267 251 256 249 268 245 226 83 82 75 79 74 83 81 82 83 85 90 92 100 98 99 93 89 88 82 78 78 80 76 90 99 119 132 131 135 138 131 129 128 125 123 120 119 120 121 123 121 120 121 119 116 114 114 114 114 115 115 116 116 115 115 114 112 111 111 110 109 109 110 109 108 108 108 108 106 105 104 102 101 99 97 94 93 90 88 86 82 79 75 70 63 58 54 50
300 289 286 281 260 213 250 237 95 80 86 83 83 77 82 83 85 83 84 88 86 88 85 89 88 84 83 87 89 86 94 92 101 111 122 132 134 138 136 129 128 124 121 122 120 121 123 126 127 125 125 124 122 120 116 117 117 116 117 118 117 115 115 115 113 111 110 110 109 108 109 111 112 111 110 108 104 103 104 105 105 104 103 101 100 97 95 92 88 84 79 72 65 59 53 48 46
273 270 269 272 302 247 252 164 91 79 85 87 90 84 87 88 89 89 92 93 91 91 84 84 85 86 79 83 97 95 104 104 104 110 115 125 133 136 133 129 127 121 118 119 120 121 126 129 129 128 128 125 123 122 121 121 119 118 119 120 119 116 115 114 112 110 109 110 110 109 109 111 112 113 111 107 105 104 106 107 107 107 106 104 103 99 96 91 85 80 76 72 64 58 52 46 44
266 270 245 220 254 281 267 102 89 83 84 86 94 89 88 86 86 88 86 83 85 88 86 87 87 88 78 75 84 90 105 110 108 113 120 126 133 133 129 127 122 119 118 117 120 122 126 127 127 127 126 125 124 124 125 125 124 123 122 123 121 118 116 114 114 113 112 113 112 112 112 111 111 112 113 112 110 111 113 113 111 111 109 106 102 96 93 88 82 74 69 68 62 58 52 46 42
283 299 264 230 253 260 171 91 87 85 87 88 93 91 93 95 95 96 94 94 93 94 96 99 100 94 84 83 83 86 100 111 115 120 123 128 132 127 124 123 120 119 118 118 121 124 126 126 127 127 126 127 128 129 130 130 129 125 124 124 124 122 121 120 120 119 119 118 117 117 115 113 113 115 119 119 118 117 119 118 115 112 106 99 95 89 86 83 77 71 69 66 57 51 44 39 34
297 307 318 306 290 241 97 84 85 85 88 89 92 94 97 96 97 98 96 96 96 99 101 102 101 94 89 89 86 90 98 106 112 119 122 126 128 123 121 121 121 120 118 121 124 126 127 126 128 128 129 131 132 133 134 134 130 126 127 128 128 128 127 126 125 123 122 119 117 118 119 117 117 119 123 123 121 120 120 119 115 110 102 97 93 87 83 79 73 70 70 64 53 44 36 23 17
309 299 324 306 282 126 96 90 90 91 96 98 95 90 88 88 93 97 94 91 94 98 97 99 100 97 98 95 93 96 101 108 113 119 123 126 126 122 121 121 121 120 120 123 126 128 127 127 128 129 131 133 134 135 136 135 130 130 132 132 133 132 129 128 126 124 122 120 115 116 122 122 121 121 123 123 122 123 123 122 118 114 108 104 98 93 92 87 76 69 58 44 32 24 13 357 354
324 307 335 298 283 78 93 97 99 97 97 98 96 95 97 99 97 92 92 90 86 87 90 95 100 103 105 100 100 106 111 116 119 121 123 123 123 123 122 121 121 123 124 124 127 128 128 129 129 130 132 133 135 136 137 137 134 135 136 136 136 133 130 129 128 126 125 122 118 118 121 122 123 124 124 123 123 125 126 124 120 115 109 106 101 99 94 75 68 57 40 25 13 3 353 343 337
341 3 357 296 66 73 83 95 100 99 98 98 96 96 95 98 92 87 90 90 90 98 105 104 101 101 102 100 100 114 122 124 122 121 122 122 123 122 120 119 121 123 125 126 127 127 129 130 130 131 133 134 136 139 140 140 139 139 140 139 137 135 134 132 130 128 127 124 123 124 123 125 128 128 126 125 126 129 131 129 124 121 116 110 96 96 73 43 54 32 11 1 356 349 339 332 325
337 346 5 338 67 73 81 93 99 105 104 101 99 96 99 106 102 99 98 102 110 109 105 105 106 106 103 103 109 121 124 123 122 122 124 124 122 120 118 118 122 123 125 127 127 128 130 131 132 134 135 136 139 142 144 143 143 143 143 141 140 140 138 136 135 135 131 128 131 132 132 135 136 136 134 135 140 146 148 151 151 164 173 207 294 35 344 352 4 346 344 342 339 334 327 320 314
302 329 20 358 36 58 68 81 97 105 101 99 101 101 106 107 102 106 111 111 105 97 97 108 118 113 106 107 120 124 120 120 122 123 125 123 122 122 119 119 122 123 126 128 128 130 131 133 135 137 137 139 142 145 146 147 147 146 147 146 146 145 143 141 140 141 137 136 141 142 143 143 142 142 143 148 153 160 168 174 174 188 230 262 285 329 317 321 328 324 330 333 328 326 321 313 308
256 237 165 135 135 101 99 112 99 94 94 105 108 100 96 88 95 109 114 104 93 103 111 112 114 104 106 120 130 127 121 125 122 120 121 120 123 120 116 120 121 123 128 130 131 133 134 136 140 140 141 143 145 147 147 149 150 149 151 150 151 150 148 147 145 147 145 147 151 151 155 154 152 152 158 165 170 180 193 202 194 202 233 255 262 283 293 302 314 318 325 328 325 322 320 315 309
247 251 208 156 165 149 143 142 109 118 107 105 106 103 103 98 112 107 97 99 102 123 113 109 125 117 128 138 130 127 127 130 125 124 125 120 121 116 115 120 122 124 129 132 134 136 138 139 143 142 143 146 147 150 150 151 152 152 154 153 154 155 156 153 152 157 156 155 162 167 172 172 172 180 193 196 202 213 219 225 234 241 247 250 257 263 269 291 308 315 319 321 321 319 318 318 312
244 268 262 166 171 160 160 130 58 104 108 105 109 106 108 106 111 97 92 104 115 136 119 116 141 129 139 136 125 128 129 128 127 130 126 120 122 118 118 121 122 127 131 134 137 139 141 142 144 144 147 150 150 152 155 155 156 157 157 158 161 162 164 162 161 167 166 167 175 182 190 195 207 219 228 229 236 249 243 231 242 255 261 257 259 265 261 276 296 305 310 313 315 315 314 315 311
238 267 282 223 156 142 150 134 35 113 116 117 118 109 108 102 99 97 107 112 118 142 122 112 123 123 130 124 124 129 128 125 127 130 124 121 125 123 124 125 126 130 133 137 139 142 144 145 147 149 152 153 153 157 158 159 161 162 163 164 167 169 170 171 174 175 176 182 189 200 204 217 232 230 236 233 230 251 256 247 249 257 264 264 262 267 266 272 285 293 298 303 306 306 304 307 306
236 249 259 218 102 82 123 142 166 151 114 122 119 114 115 112 109 113 127 115 115 128 113 115 119 115 115 118 126 128 130 131 129 131 130 132 134 133 133 133 133 134 137 139 142 145 144 147 149 151 154 155 157 160 159 164 167 164 166 168 172 178 179 183 188 187 188 190 198 212 211 225 242 241 245 240 230 241 254 260 260 262 265 269 270 271 273 277 283 288 292 295 295 292 291 294 292
222 249 261 72 82 79 102 130 142 127 134 143 119 115 119 115 102 73 104 113 116 113 107 113 111 111 117 123 129 129 135 138 134 136 139 142 141 139 138 138 141 141 143 144 146 148 146 148 150 151 156 158 158 160 162 165 168 166 169 173 181 188 192 197 195 191 194 203 211 219 219 235 253 255 256 257 253 250 253 260 267 274 274 274 276 274 273 274 279 287 289 287 288 286 282 283 279
211 232 248 70 77 84 90 115 131 139 149 132 114 119 124 112 102 72 90 121 127 117 115 118 117 124 130 130 132 135 143 144 139 141 143 143 143 143 143 145 147 147 148 148 150 152 150 150 152 154 158 159 156 159 164 165 167 169 173 180 189 193 195 202 200 199 206 217 222 225 233 247 260 262 264 265 262 258 254 258 270 274 269 270 271 268 264 265 275 282 278 281 289 287 284 284 274
242 7 23 86 89 94 106 129 131 133 127 114 124 129 117 102 103 111 95 109 131 127 135 133 132 135 136 137 138 143 147 148 148 147 146 144 148 147 144 149 148 149 150 148 153 155 156 153 153 158 162 163 159 162 166 166 169 173 180 183 190 195 197 202 202 208 215 221 224 231 244 252 257 261 266 263 258 258 258 263 278 278 272 272 267 259 255 263 271 261 266 280 286 282 283 284 273
348 74 47 66 80 92 105 114 111 118 120 117 124 104 97 95 90 83 76 59 163 131 136 131 136 139 139 143 142 148 150 152 156 151 150 149 155 151 143 146 143 148 152 150 157 158 161 160 157 160 165 168 165 166 168 170 172 178 186 185 190 195 201 206 203 212 218 220 226 233 245 246 246 257 262 260 258 261 262 266 279 285 282 275 263 257 259 270 270 255 266 279 278 274 273 274 275
246 104 74 66 90 100 99 105 113 124 119 105 99 91 101 110 106 101 108 206 201 119 125 129 137 139 139 144 145 152 150 154 159 151 151 151 157 153 145 149 146 153 154 150 161 162 162 164 163 162 165 169 170 172 171 171 174 180 185 183 191 198 202 206 204 216 224 225 230 233 240 241 246 265 266 264 262 261 267 275 285 285 274 269 265 260 261 271 270 260 267 275 280 284 284 282 279
195 102 110 108 101 114 113 122 129 116 105 98 98 101 105 107 115 129 140 180 153 110 119 128 135 139 141 146 149 151 149 159 161 154 156 155 159 150 144 149 149 158 155 151 163 164 165 168 168 167 167 171 172 176 175 170 173 180 182 181 192 200 200 202 201 218 232 233 232 230 234 241 258 275 279 270 265 274 288 290 290 278 263 263 266 263 258 261 265 268 269 269 275 281 284 284 280
134 105 104 109 107 119 118 119 120 106 98 98 97 94 88 87 102 117 119 128 118 113 125 130 138 144 143 149 151 149 154 163 159 157 162 160 161 153 148 152 151 157 159 159 165 165 169 170 170 172 171 174 173 177 179 173 179 181 178 185 194 198 201 206 210 219 232 236 237 231 229 233 240 252 275 275 271 291 298 284 274 269 265 265 266 266 261 254 260 269 272 269 271 275 276 274 274
103 119 125 132 125 124 128 127 119 105 99 104 103 97 94 98 103 101 103 112 117 122 128 134 146 147 145 152 148 149 162 164 159 159 162 161 165 165 160 159 158 161 161 161 166 168 172 174 175 180 177 177 177 181 184 181 193 192 188 195 200 203 204 211 222 227 232 238 245 234 224 230 236 242 263 267 264 274 272 262 263 261 260 264 267 267 261 256 257 263 276 282 280 278 276 271 274
98 158 141 130 129 134 140 123 108 102 113 117 113 112 115 122 117 105 111 119 125 129 131 141 150 147 149 152 143 154 172 162 159 159 160 164 166 172 167 162 166 165 160 160 164 166 171 178 180 184 186 183 183 187 189 187 199 210 211 213 215 219 216 219 234 238 241 248 252 246 244 257 261 254 252 251 253 256 254 256 258 258 258 257 258 257 252 250 252 266 287 294 286 279 277 274 275
138 168 131 134 148 148 138 116 111 120 126 121 121 128 125 121 115 115 123 129 136 136 138 147 150 149 152 148 141 163 176 156 164 163 162 167 162 173 174 166 168 160 160 170 173 166 170 181 181 184 190 191 193 193 192 192 200 209 218 227 234 239 228 235 248 240 240 248 249 251 257 259 255 245 241 245 247 249 253 256 255 260 266 264 263 261 255 254 259 272 286 291 288 285 283 278 274
152 157 140 158 161 145 135 124 131 133 127 131 140 135 116 106 112 122 131 137 140 137 145 149 145 151 148 139 145 170 170 157 169 167 165 168 163 174 178 172 171 162 166 178 180 172 171 180 181 185 191 194 198 197 195 196 203 209 215 223 229 234 231 238 246 240 241 244 243 240 239 241 242 240 242 245 247 249 253 258 260 262 265 268 270 267 263 265 270 275 280 285 290 292 291 287 281
144 164 161 163 156 152 149 141 143 133 123 142 161 145 107 111 124 134 143 143 141 142 152 152 146 153 147 139 156 172 163 164 175 169 164 164 166 174 177 176 175 173 174 175 181 181 177 180 181 185 190 195 198 198 200 200 206 212 217 224 224 229 232 237 248 252 252 248 246 245 244 244 244 248 251 251 252 255 256 260 264 265 264 264 264 263 266 272 276 276 275 276 282 287 288 287 284
180 177 156 172 172 167 160 155 153 136 137 164 185 187 118 123 134 141 149 144 143 150 154 157 154 154 149 147 166 169 159 171 175 167 162 161 170 174 174 177 175 179 174 170 180 181 175 176 178 186 189 195 200 200 202 203 207 211 216 224 226 232 237 245 255 257 255 252 250 248 245 244 248 257 261 262 263 262 263 265 266 268 268 267 265 264 266 271 275 276 272 270 272 272 276 279 279
202 178 168 198 184 166 163 165 169 149 160 186 194 153 130 131 144 147 154 151 147 154 157 162 159 156 156 155 170 167 158 175 173 167 164 161 168 167 168 173 169 166 156 161 175 173 175 177 179 189 190 194 199 201 203 205 209 212 214 222 231 236 241 248 257 258 256 258 262 261 257 249 249 257 264 269 270 267 266 268 270 272 273 273 270 265 264 267 272 276 273 269 267 267 271 275 275
187 179 202 198 184 180 166 169 183 170 168 179 169 156 142 138 152 156 158 159 154 155 157 162 162 160 159 160 171 164 158 174 173 165 160 158 162 158 162 167 167 159 147 160 173 174 181 181 183 190 190 194 197 199 203 205 210 217 220 223 230 236 242 252 263 267 263 262 268 276 277 268 261 267 272 272 272 274 273 272 272 273 276 277 275 268 263 265 268 272 274 270 268 270 273 275 277
175 187 222 191 185 192 173 178 184 179 180 177 170 177 147 141 157 165 162 167 166 159 155 160 166 165 160 163 169 161 160 168 172 167 159 160 158 151 161 170 175 171 160 171 179 182 187 182 185 192 191 193 195 198 199 200 212 223 230 226 221 229 239 252 267 270 269 269 272 277 277 276 280 284 280 273 278 285 285 280 275 271 274 278 279 273 266 264 265 266 271 273 272 273 274 276 280
176 191 223 191 188 192 188 193 181 181 185 183 191 174 144 146 160 169 169 175 173 162 159 159 163 166 165 170 165 158 162 164 170 168 160 166 160 153 170 174 175 178 171 178 182 184 187 183 187 191 192 190 191 197 194 196 212 218 222 218 218 235 250 261 272 274 274 272 272 275 276 279 287 285 278 276 286 293 293 290 283 277 273 275 280 278 271 267 266 267 270 273 273 273 274 276 278
178 199 218 192 199 193 177 213 199 179 178 194 208 172 153 160 165 173 177 180 176 165 165 163 163 169 171 174 166 159 166 166 169 165 160 171 168 162 172 169 172 180 173 174 179 180 180 182 185 187 189 184 183 190 188 195 207 208 212 216 225 248 265 271 272 273 273 268 267 270 273 280 284 284 282 279 284 291 294 295 294 293 285 277 278 278 274 269 267 270 273 275 277 278 279 278 278
176 197 215 189 204 194 164 219 229 187 190 200 187 170 171 168 165 177 183 183 179 169 169 168 166 169 173 174 169 166 168 168 170 167 164 170 171 169 168 163 171 176 167 168 175 179 181 181 180 183 182 175 175 178 183 193 199 201 211 221 235 256 270 269 267 269 271 270 274 273 274 283 285 286 286 283 288 294 296 298 297 300 295 286 283 283 281 277 275 276 277 278 278 278 278 278 280
189 191 212 190 197 196 170 197 214 191 204 208 168 161 176 174 171 178 185 186 183 176 174 175 169 168 176 174 169 171 169 166 167 166 167 171 173 171 166 166 175 174 167 169 174 178 183 177 172 178 176 173 178 180 182 189 194 204 222 236 245 253 252 252 261 274 280 283 286 284 289 292 287 289 292 294 297 295 294 295 292 291 289 285 283 284 283 283 281 277 276 278 276 275 277 279 284
220 199 217 204 186 186 181 186 191 183 198 212 173 159 171 190 186 178 186 190 184 181 181 178 169 167 180 175 167 170 166 165 168 167 171 173 172 171 171 177 179 177 171 172 174 174 178 177 173 178 175 173 182 183 185 190 195 208 222 236 243 254 262 265 280 293 298 300 296 292 294 289 283 294 301 301 298 293 292 292 290 286 285 284 281 282 283 283 282 278 275 276 276 279 281 283 286
260 249 230 214 192 188 185 178 183 190 204 215 192 181 182 189 197 192 193 192 185 187 185 184 176 170 180 178 171 171 166 168 172 172 175 175 173 171 175 180 176 173 172 172 173 169 172 176 177 182 179 178 182 180 186 192 190 189 190 215 242 259 286 301 305 304 310 312 303 300 306 306 301 306 306 305 303 300 299 296 293 289 286 285 282 281 283 285 285 283 284 284 284 283 285 290 293
226 250 241 221 209 201 185 170 179 198 210 215 205 199 181 172 202 208 197 197 193 190 188 188 182 174 182 180 175 175 170 170 171 173 178 176 173 171 174 178 171 170 173 173 173 170 170 173 174 180 179 178 179 174 178 179 172 173 179 211 251 255 284 298 293 296 310 316 311 314 332 338 329 317 311 309 307 306 306 304 302 298 295 292 289 286 284 285 287 287 290 296 298 292 286 291 297
204 233 247 257 236 183 167 169 175 199 212 204 207 221 187 162 195 256 287 236 212 193 191 194 183 173 186 187 176 178 173 168 170 175 177 174 171 169 173 175 169 168 173 173 173 171 170 169 168 170 170 171 171 166 168 168 167 173 178 206 244 256 272 279 284 299 310 315 316 320 329 331 324 321 316 311 310 310 311 312 314 312 309 306 302 296 290 288 291 290 286 284 288 290 286 289 297
222 209 229 266 259 176 171 176 178 208 218 189 202 229 205 160 182 186 184 266 249 214 194 195 188 175 187 195 178 176 175 170 177 179 173 173 172 168 171 174 169 168 171 172 171 169 166 166 164 164 164 165 164 163 166 166 167 171 181 214 237 261 275 277 287 293 289 291 301 313 317 316 318 320 315 313 315 316 318 321 324 325 326 323 319 313 307 304 303 303 296 285 287 296 291 283 292
246 202 193 241 260 230 220 203 183 197 212 199 206 217 218 183 188 181 177 212 250 237 210 199 197 184 189 198 186 181 180 173 178 181 173 170 170 168 170 173 172 169 168 169 167 163 163 163 163 162 160 160 162 163 164 165 167 173 187 214 226 248 273 287 292 285 276 275 293 308 307 306 311 314 312 314 316 321 325 328 332 333 332 332 330 328 325 323 319 312 308 301 296 298 294 288 290
245 238 206 221 238 261 272 240 194 187 203 231 222 213 223 213 178 175 184 198 219 229 217 204 205 197 193 200 195 187 183 175 175 182 181 170 167 169 169 172 176 170 163 163 161 160 161 162 162 160 158 159 161 161 162 165 170 177 186 204 230 248 266 283 292 296 300 303 301 300 298 299 305 310 312 314 318 327 329 332 337 336 335 335 335 334 332 330 327 321 315 308 296 290 292 293 289
230 236 261 230 207 242 266 252 262 239 223 245 237 212 221 231 171 172 193 204 212 218 212 205 207 203 198 201 202 193 180 173 175 183 183 169 168 172 169 174 178 166 158 158 159 159 160 160 161 159 159 160 161 161 162 165 172 182 190 202 242 260 265 277 287 294 297 292 284 287 294 300 305 308 310 314 319 323 324 331 338 337 336 338 338 338 338 336 335 333 326 316 307 299 296 294 288
229 211 245 236 181 206 253 257 282 278 249 247 245 228 222 237 206 186 203 207 203 203 204 208 207 202 198 198 205 199 180 168 174 184 179 166 168 171 171 177 174 160 158 161 160 161 160 160 162 162 161 161 161 162 164 170 177 183 194 205 236 258 270 284 289 288 288 287 286 292 299 305 307 305 307 310 314 317 323 332 335 335 337 338 340 339 339 340 338 335 331 324 317 312 304 300 298
227 209 239 248 165 187 239 243 245 255 254 243 243 235 230 242 229 203 209 205 196 191 197 205 202 199 196 196 206 203 181 169 173 184 178 162 165 171 171 175 166 156 161 165 162 163 161 162 166 164 163 163 163 167 169 174 182 185 196 209 230 248 266 282 287 290 293 291 293 302 306 305 304 303 306 308 310 318 325 329 329 328 331 333 334 337 338 340 338 333 332 328 325 325 319 313 311
199 210 226 231 208 196 218 228 223 237 250 245 247 248 242 248 237 214 216 208 191 182 190 199 196 197 196 193 199 199 182 176 177 186 182 165 166 172 171 169 161 158 166 167 164 165 163 165 169 166 166 167 167 171 174 180 187 191 196 207 225 239 253 271 279 285 287 286 291 300 302 301 304 306 308 311 316 321 321 321 321 319 322 324 326 330 332 334 335 334 332 327 326 327 325 322 320
185 211 219 219 215 197 208 227 233 239 244 238 241 252 260 257 233 207 221 221 186 175 190 200 193 193 198 191 188 192 188 178 176 186 183 171 170 172 169 165 162 164 169 168 167 167 164 167 172 169 168 170 172 176 180 185 191 193 196 204 221 232 238 254 265 273 282 292 294 292 295 300 304 305 307 313 317 315 313 313 314 313 314 316 318 322 325 327 329 329 327 324 321 321 322 322 321
194 216 226 222 216 207 214 220 225 235 241 232 227 230 235 242 191 179 247 296 142 169 183 181 175 178 185 185 180 187 191 177 176 187 183 177 174 171 168 165 164 167 170 171 169 167 166 169 173 172 170 173 177 180 183 190 194 194 196 204 217 223 229 243 252 261 273 280 280 283 292 300 303 304 305 308 308 307 309 309 309 310 310 311 313 315 317 319 323 323 322 319 318 320 321 319 319
196 210 233 232 210 202 220 242 247 256 262 245 237 237 200 157 65 232 266 61 100 163 151 130 135 139 142 163 173 183 197 186 180 186 185 180 175 174 173 169 169 171 172 174 171 168 169 171 174 174 172 175 181 184 186 192 194 194 196 203 213 218 220 232 242 247 251 257 267 281 292 297 301 304 302 302 304 305 306 307 308 309 308 309 312 313 313 315 319 319 318 317 317 319 321 320 321
188 194 228 245 241 222 218 239 249 263 269 246 234 250 222 189 222 207 190 165 151 154 162 178 150 127 136 160 175 186 206 197 181 180 185 182 175 177 177 173 175 176 176 178 174 171 172 172 174 175 172 177 184 185 187 191 192 193 196 202 209 217 220 226 237 244 246 253 267 280 286 290 295 302 305 305 306 305 304 306 307 307 307 307 307 308 309 310 314 316 314 314 315 316 317 318 319
202 191 203 226 256 260 247 242 233 235 251 236 219 239 230 209 216 178 170 171 161 160 194 205 155 134 152 173 180 189 204 200 180 173 183 185 178 181 179 176 179 180 180 180 175 173 173 173 176 175 172 178 185 186 188 189 190 193 196 202 206 213 222 226 233 242 247 254 263 272 281 289 297 304 307 307 306 305 304 304 305 306 306 305 305 305 303 302 305 309 310 310 310 311 311 310 313
223 218 200 206 232 233 227 255 261 247 248 245 239 247 245 228 201 151 156 166 163 159 167 178 162 157 170 183 184 185 193 200 182 174 184 186 179 180 179 176 180 182 182 180 175 174 175 174 177 176 174 178 183 185 188 187 190 193 195 201 206 211 218 224 229 235 239 246 258 272 282 291 299 302 302 305 305 304 303 303 303 303 303 303 303 301 299 298 298 301 304 305 304 303 303 304 309
234 243 237 235 237 220 202 205 239 262 251 237 239 239 247 257 158 148 154 160 150 142 140 154 182 173 171 183 189 178 176 191 199 190 187 184 179 179 179 179 184 185 182 177 175 178 178 177 179 177 174 177 180 184 187 187 189 193 193 197 203 209 214 219 224 228 233 242 254 265 274 282 287 289 292 295 296 296 297 297 297 297 297 300 300 299 297 294 293 294 294 297 298 299 301 302 305
220 240 245 233 225 229 215 188 196 238 249 248 251 234 80 46 102 131 137 135 123 120 129 141 192 220 175 168 177 181 184 187 191 191 187 183 181 182 182 181 184 185 182 179 181 183 181 179 180 179 174 175 179 183 185 187 189 192 193 195 202 209 213 217 222 227 231 240 251 256 262 264 263 267 276 282 285 287 289 292 293 292 293 295 296 297 297 293 289 287 286 290 292 293 298 302 304
206 209 234 235 222 225 228 203 192 219 245 251 255 247 85 72 92 114 122 136 134 126 122 142 176 205 154 139 172 189 188 187 189 186 184 184 181 181 182 180 183 189 187 184 185 185 183 182 181 180 176 175 178 181 183 185 187 191 194 198 207 213 215 218 222 229 233 237 246 252 256 254 251 258 267 273 279 282 284 287 289 290 291 293 294 294 296 296 292 288 286 286 286 288 294 298 302
Height
739 739 739 741 737 738 737 742 765 758 751 769 765 765 761 747 748 754 759 756 757 753 744 748 747 747 755 765 771 773 776 777 777 789 810 808 801 807 807 808 808 808 809 810 811 812 813 815 815 816 817 819 820 820 820 821 822 823 825 826 827 828 829 830 830 831 832 832 833 834 835 835 836 837 838 839 840 841 842 843 843 843 844 844 844 844 845 845 846 846 846 847 847 848 848 848 847
739 737 736 740 737 746 746 744 768 760 757 778 767 764 760 748 754 761 761 759 759 750 741 743 745 748 751 757 763 771 780 776 772 781 795 798 801 805 805 808 809 810 811 812 813 813 815 815 816 817 818 819 820 820 821 822 823 825 826 827 829 830 830 831 831 832 833 833 834 835 836 836 837 838 839 840 841 842 842 843 844 844 844 844 844 845 845 846 846 847 847 847 848 849 849 848 848
739 736 734 739 738 745 747 749 765 765 774 785 773 761 755 759 763 760 756 753 749 741 741 743 748 751 754 766 769 778 788 780 775 783 792 797 800 803 806 807 808 811 812 814 814 814 816 816 817 817 818 820 820 822 823 823 824 826 827 828 829 830 831 832 832 833 833 834 835 835 836 837 838 839 840 841 841 842 843 844 844 844 844 845 845 845 846 846 847 847 848 848 849 849 849 849 848
737 736 734 734 740 747 755 762 760 764 780 784 779 764 755 763 760 756 751 747 743 740 745 747 754 752 756 775 774 778 787 782 780 783 791 797 797 801 805 807 809 810 812 815 815 816 817 817 818 819 820 821 822 823 823 824 826 827 828 829 830 831 832 833 833 834 834 835 835 836 837 838 838 839 840 841 842 842 843 844 845 845 845 845 845 846 846 847 848 848 849 849 849 849 850 849 849
734 737 735 735 748 753 754 759 754 765 777 773 778 768 756 757 754 754 748 744 743 745 749 751 761 755 754 767 769 780 785 781 782 782 789 796 798 801 804 806 809 809 812 814 815 817 818 819 820 820 821 822 822 823 824 826 827 828 829 830 830 831 832 833 834 834 835 836 836 837 838 838 839 840 841 841 842 843 844 845 845 846 846 846 846 847 847 848 848 849 849 849 850 850 850 850 850
731 733 732 733 740 743 751 760 761 768 764 759 770 765 754 752 751 753 748 746 744 745 749 754 764 762 765 765 763 774 776 779 784 784 789 794 799 802 804 806 808 810 812 814 816 817 819 820 820 821 822 822 823 824 826 827 828 829 830 830 831 832 833 834 835 835 836 837 837 838 838 839 840 841 842 842 843 844 845 845 846 846 846 846 847 847 848 848 849 849 849 849 850 850 851 850 851
730 735 734 738 740 740 757 764 764 768 756 750 760 759 753 750 749 751 753 754 752 749 751 756 758 766 777 770 769 772 770 777 780 785 789 793 798 801 804 805 807 810 812 814 816 817 819 820 820 822 822 823 824 825 826 827 829 829 830 831 831 832 833 834 835 836 837 837 838 839 839 840 840 841 842 843 844 844 845 846 847 847 847 847 847 848 848 848 849 849 849 850 851 851 851 851 851
730 738 737 750 759 752 760 763 761 765 756 748 749 750 748 746 745 750 755 757 759 756 755 757 755 772 781 772 781 778 772 778 779 786 790 792 797 800 804 805 807 809 812 814 815 817 819 820 821 822 822 824 824 826 827 828 829 829 831 831 832 833 834 835 836 837 837 838 839 839 840 841 841 842 843 844 844 845 846 847 847 847 847 847 848 848 848 848 849 849 850 850 851 851 851 851 851
728 739 743 756 768 762 763 767 764 760 755 750 747 746 744 743 745 750 756 757 757 757 758 758 758 777 782 778 787 780 776 782 783 788 790 794 797 799 804 805 808 809 812 814 815 817 818 820 821 822 823 824 825 826 827 828 829 830 831 832 833 834 835 836 836 837 838 839 840 841 841 842 843 844 844 845 845 846 847 848 848 848 848 848 848 848 848 848 848 849 850 851 851 852 852 852 852
732 740 753 763 769 773 772 770 767 759 754 748 746 745 743 743 744 749 755 759 757 760 761 756 762 775 781 785 788 781 781 785 785 790 791 795 796 799 803 805 808 809 812 814 815 817 818 821 821 823 823 824 826 827 828 829 830 831 832 833 834 835 836 836 837 838 839 840 841 842 842 843 844 845 846 845 846 847 848 849 849 849 848 848 848 848 848 848 848 849 850 850 851 851 851 852 852
746 744 751 768 774 785 783 774 768 759 752 747 746 742 740 741 746 752 755 761 760 763 763 760 771 775 778 787 787 782 782 785 787 790 792 795 797 799 802 806 809 810 812 813 815 817 818 821 821 823 824 825 827 827 829 830 831 832 833 834 835 836 836 837 838 839 840 841 841 842 843 844 845 846 846 846 847 848 848 849 849 849 849 849 848 848 848 848 849 849 849 849 850 850 850 851 851
759 757 757 777 781 785 781 776 770 760 754 752 751 743 738 741 749 757 759 763 761 764 763 763 772 772 784 792 785 781 781 786 788 791 794 796 798 800 804 807 809 811 812 813 815 817 818 820 822 824 824 826 827 828 830 830 832 832 834 834 835 836 837 838 839 840 841 842 842 843 844 845 846 846 846 846 847 847 848 848 848 849 849 849 849 849 849 849 849 849 849 849 849 849 849 850 850
757 759 768 786 780 782 781 776 769 762 762 756 752 741 736 743 751 755 757 760 760 768 767 761 763 768 785 791 782 781 782 787 789 792 795 797 800 802 805 807 810 811 813 814 816 817 819 821 822 824 825 826 827 829 830 831 832 832 834 835 836 837 838 840 840 841 842 842 843 844 844 845 845 845 846 845 846 847 847 848 848 849 849 849 849 849 849 849 849 849 849 849 849 849 849 849 849
747 747 763 786 780 780 779 776 772 771 771 756 747 740 737 746 748 747 751 762 765 767 762 753 757 772 787 789 787 785 784 788 790 794 795 799 801 802 806 808 810 812 814 815 816 818 820 821 822 824 825 827 828 829 830 831 832 833 835 836 837 838 839 840 840 841 842 843 844 844 844 845 845 845 845 845 846 846 846 847 848 849 849 849 849 849 849 849 849 849 849 848 848 848 848 848 848
738 738 751 779 785 779 772 772 772 774 771 753 744 740 743 746 742 746 751 764 767 754 753 754 756 775 787 789 792 786 783 788 790 795 797 800 802 804 807 808 811 812 815 816 817 819 820 822 823 824 826 827 828 829 830 832 833 834 835 836 837 838 839 840 840 841 842 843 843 844 844 844 845 845 845 845 845 846 846 846 846 847 848 848 849 849 849 848 848 848 848 847 847 847 847 847 847
727 732 748 770 780 780 775 773 774 776 766 750 743 738 749 748 739 749 748 752 762 750 752 762 757 767 778 780 784 781 783 788 791 796 797 801 802 805 808 809 812 813 815 817 819 820 821 823 823 825 826 827 829 830 831 832 834 834 835 837 837 838 839 839 840 841 842 842 843 843 844 844 845 845 845 846 846 846 845 845 845 846 847 847 847 847 848 847 847 847 847 846 846 846 845 845 845
722 736 756 764 766 770 773 778 782 778 761 749 744 741 754 756 744 747 743 745 760 757 756 761 756 759 768 773 777 779 785 788 791 796 797 802 803 806 809 810 812 813 816 817 819 821 822 823 824 826 827 828 830 830 832 833 834 835 836 837 837 838 838 839 840 840 841 842 843 843 843 844 844 845 845 845 845 845 845 845 844 844 845 845 846 846 846 846 846 846 846 845 845 844 844 843 843
731 751 764 762 759 757 759 768 768 761 756 752 746 744 753 760 754 747 748 755 759 760 760 759 758 759 765 771 777 781 786 789 792 795 798 801 803 806 808 810 813 814 816 817 819 821 822 824 824 826 827 829 830 830 832 833 835 835 836 837 838 838 838 839 839 841 841 841 842 842 843 843 844 845 845 845 845 844 844 844 843 843 843 844 845 846 846 846 845 845 845 844 844 843 842 841 841
738 753 760 756 751 743 740 748 750 752 757 751 745 745 750 756 757 752 760 769 765 769 770 764 768 769 770 774 779 784 786 790 792 795 798 800 802 805 808 810 812 814 815 817 820 821 822 824 825 826 827 828 829 831 832 833 835 836 837 837 837 838 838 839 840 841 842 842 842 842 842 842 843 844 845 845 845 844 843 843 843 843 843 843 844 845 845 845 845 845 844 844 843 843 842 840 839
732 742 757 750 738 736 733 737 741 744 746 747 748 746 748 751 755 760 768 773 770 776 777 774 780 779 777 777 779 784 787 789 792 794 797 798 801 804 807 809 811 813 815 817 819 821 822 823 825 826 827 828 830 831 832 833 835 836 837 837 837 837 838 839 840 842 842 842 842 841 841 842 843 843 844 844 844 843 842 842 842 842 842 843 843 844 844 844 844 844 843 843 842 842 841 839 838
728 733 750 741 730 738 736 732 734 735 737 744 748 747 751 750 754 764 772 782 781 776 773 774 779 778 778 779 779 783 786 788 791 793 796 798 800 802 805 808 810 812 814 816 819 820 822 823 824 825 826 828 829 830 832 833 834 835 836 836 837 837 837 838 839 841 841 842 842 841 841 841 842 842 843 843 842 841 841 841 841 841 842 842 843 843 843 843 843 843 842 841 841 840 840 839 838
731 734 738 732 731 740 735 728 730 732 735 741 746 750 754 753 759 767 774 790 786 770 766 768 772 774 776 777 779 782 784 787 789 791 794 797 799 800 804 806 809 811 813 815 817 820 821 823 824 825 826 827 828 830 831 833 833 834 835 835 836 836 837 838 838 839 840 840 840 841 840 840 840 841 841 841 841 840 840 840 840 840 840 842 843 843 843 842 842 841 841 840 840 839 838 837 837
736 738 732 729 731 737 734 730 732 732 738 745 747 748 749 758 772 771 775 787 775 761 761 765 768 770 773 776 778 781 783 786 787 789 792 795 798 799 803 805 807 810 812 814 816 819 821 822 824 824 826 827 828 830 830 832 833 834 834 835 835 836 836 837 838 838 838 839 839 839 839 839 839 839 840 840 840 840 840 839 839 840 841 842 842 842 842 841 841 840 840 839 838 838 837 837 835
735 742 735 731 729 733 732 730 733 733 739 744 741 746 751 762 772 772 777 778 765 760 761 764 768 769 773 777 779 782 784 786 787 789 792 794 797 799 802 805 807 809 811 813 815 818 820 821 823 824 826 827 828 830 831 832 833 834 834 835 835 835 836 836 837 837 837 837 837 838 838 838 838 838 839 839 839 839 839 839 839 841 842 842 842 841 841 840 839 839 839 838 838 837 837 836 835
734 740 737 732 732 732 730 730 734 735 738 739 742 753 758 759 763 769 773 769 763 763 764 766 770 771 775 778 780 783 785 786 787 789 792 794 797 799 802 805 807 809 811 813 815 817 819 821 822 824 826 827 828 829 830 831 832 833 833 834 835 835 835 836 836 836 835 836 836 836 836 837 837 837 838 838 838 838 839 839 840 841 841 841 841 840 839 839 838 838 838 838 838 837 837 836 835
733 735 735 734 736 733 731 734 735 737 739 741 752 761 761 756 760 772 771 765 765 764 767 771 772 775 777 779 781 783 786 786 787 790 792 795 797 799 801 804 806 809 811 812 815 816 818 820 822 824 825 826 828 828 829 830 831 831 832 833 833 834 834 835 835 835 835 835 835 835 836 836 836 836 837 837 838 838 839 840 840 840 840 839 839 838 838 837 837 837 837 837 837 837 836 836 835
727 730 733 733 737 733 733 737 737 739 741 744 757 766 763 755 764 781 774 764 766 768 772 774 775 779 779 780 781 784 786 785 788 790 792 795 797 799 800 803 806 808 810 812 814 816 818 820 821 823 825 826 827 828 829 829 830 830 831 831 832 832 833 833 833 833 834 834 834 834 834 834 834 834 835 837 837 838 839 838 838 838 837 837 837 836 836 836 835 835 835 835 836 835 835 835 835
725 729 736 738 737 736 735 740 741 742 746 745 752 763 762 759 770 780 771 764 767 771 776 776 777 780 779 781 783 785 785 786 789 790 793 795 796 799 800 802 805 807 810 812 814 816 818 819 820 822 824 825 826 827 828 828 829 829 830 830 830 831 831 832 832 832 833 833 833 833 833 833 834 835 836 837 837 837 837 837 837 836 836 835 835 835 834 834 833 833 833 834 834 834 834 834 834
726 729 746 748 741 744 742 741 742 744 750 743 747 769 773 771 776 773 765 765 767 772 778 777 779 781 780 783 785 787 786 787 790 790 793 795 797 799 801 803 805 807 810 812 813 815 817 818 820 821 823 824 825 826 827 827 828 828 829 829 830 830 831 831 832 832 832 833 833 833 834 835 835 836 836 836 836 836 836 835 835 835 835 834 834 833 832 832 832 831 831 832 832 832 832 832 832
732 733 747 755 757 760 746 741 743 746 751 738 749 786 790 778 774 768 763 765 769 777 780 778 780 781 782 785 787 788 786 788 789 791 793 795 798 800 801 804 805 807 809 811 812 813 816 817 819 821 822 823 824 825 826 826 827 827 828 828 829 829 830 831 831 831 832 832 833 834 835 835 836 836 836 836 835 834 834 834 833 833 833 833 833 832 831 830 830 830 830 830 830 830 830 830 830
741 744 751 758 772 771 746 741 747 753 753 737 754 793 793 778 773 766 763 764 771 780 780 779 780 781 783 786 788 788 787 789 789 790 793 795 798 799 801 803 804 807 807 809 811 812 815 816 818 820 821 822 823 824 825 825 826 827 827 828 828 829 829 830 830 830 831 832 832 833 834 834 834 835 835 835 834 833 832 832 832 832 832 832 831 831 830 830 829 829 829 829 829 829 829 828 828
744 759 771 766 771 771 751 742 746 757 755 739 759 792 789 777 772 765 762 764 771 779 780 779 780 781 784 786 787 788 788 789 789 791 793 795 798 799 801 803 804 807 808 810 811 812 815 816 818 819 820 822 822 823 824 825 825 825 827 827 827 828 828 829 829 830 830 831 831 832 832 832 832 833 833 834 833 831 830 830 830 830 830 830 830 830 829 829 828 828 828 828 828 828 828 827 827
749 764 780 771 770 773 762 750 741 746 753 747 759 782 784 777 770 763 761 764 769 777 780 779 781 781 782 786 786 788 790 790 790 792 794 797 799 800 802 804 806 808 809 810 811 813 815 816 817 819 820 821 821 822 823 824 825 825 825 826 827 827 828 828 828 829 829 830 830 831 831 830 830 830 831 832 831 829 828 828 828 828 829 828 828 828 828 827 827 827 826 827 827 826 826 826 826
762 766 772 767 768 773 771 761 744 739 751 757 759 769 776 773 768 764 762 764 768 775 779 779 780 781 782 784 786 787 791 792 792 792 795 798 800 802 804 805 807 808 810 811 811 813 814 815 817 818 819 820 821 821 822 823 824 824 825 825 826 826 827 827 827 828 828 828 829 829 829 828 828 828 830 830 829 827 826 826 826 826 826 826 826 826 826 826 826 826 825 825 825 825 825 825 825
767 770 769 768 767 771 775 766 749 744 754 761 763 769 772 769 766 765 762 761 767 772 775 777 779 781 783 783 785 788 790 792 793 792 795 798 800 802 804 806 808 808 810 810 811 812 814 815 816 818 819 819 820 820 821 823 823 824 825 825 825 826 826 826 826 826 826 827 827 828 827 827 827 827 828 828 826 825 825 825 824 824 824 824 824 824 824 824 824 824 824 823 823 823 823 823 823
754 759 759 766 767 768 770 761 745 743 758 766 766 772 772 770 769 766 762 759 764 769 771 775 778 780 782 784 786 788 790 791 790 792 794 797 800 801 803 805 807 809 810 810 811 812 814 815 816 817 819 819 820 820 821 822 822 823 824 824 825 825 825 825 825 825 825 825 825 826 826 826 826 826 826 826 824 824 823 823 823 823 823 822 822 822 822 822 823 823 822 822 822 821 822 821 821
738 749 751 755 762 763 760 758 745 738 759 767 762 770 771 769 769 764 762 760 764 769 771 774 776 779 782 784 786 787 789 788 787 790 793 796 799 800 802 804 807 809 810 810 810 812 813 814 816 817 818 819 819 820 821 821 822 823 823 824 824 824 825 824 824 824 824 824 824 824 824 825 825 824 824 824 823 823 823 823 822 822 822 822 822 821 821 821 821 821 821 821 821 820 820 820 820
730 742 747 749 756 757 751 755 749 737 757 766 758 771 774 767 767 762 760 764 766 767 770 773 774 778 779 781 784 785 785 785 785 789 792 795 798 799 801 803 805 808 809 809 809 811 812 813 815 816 817 818 819 819 820 821 822 822 823 823 823 823 823 823 823 823 823 823 823 823 823 823 823 823 823 822 822 822 822 822 822 822 822 822 821 821 820 820 820 820 820 820 820 820 819 818 819
725 730 740 747 748 750 748 747 744 740 757 766 762 775 780 769 764 761 761 763 764 762 764 768 771 776 778 778 782 783 784 785 785 787 789 792 794 796 799 801 803 806 807 808 809 810 812 813 814 815 816 817 819 819 819 821 821 822 822 822 822 823 822 822 822 822 822 823 822 823 822 822 822 822 822 822 821 821 821 822 821 821 821 821 821 820 819 819 819 819 819 819 818 818 818 817 817
728 731 740 747 740 748 757 751 746 744 751 759 761 772 777 771 767 763 760 759 759 759 760 762 764 771 774 773 776 779 783 785 785 786 786 788 791 793 796 798 801 803 805 807 808 810 811 812 813 814 815 816 817 818 819 820 821 821 822 822 822 822 822 821 821 822 822 822 822 822 821 821 821 821 821 821 821 821 821 821 820 820 820 820 820 819 818 818 818 818 818 818 817 817 816 816 816
737 735 737 741 733 736 747 747 747 747 748 749 759 779 783 776 777 773 762 757 759 759 760 763 762 765 767 768 771 774 777 781 783 784 783 784 788 790 793 796 798 801 803 805 807 808 810 811 812 813 814 815 816 817 818 819 819 820 820 821 821 821 821 821 821 821 821 821 821 821 820 820 821 821 820 821 821 820 820 820 820 819 819 819 818 818 818 817 817 817 817 817 817 816 815 815 815
742 736 730 728 725 726 734 741 750 764 768 751 757 796 802 781 781 784 773 767 765 761 763 766 765 764 766 768 770 771 773 776 778 780 781 782 784 787 791 793 795 798 801 803 805 807 808 809 811 812 813 814 816 816 817 818 818 819 820 820 820 820 820 821 820 821 821 821 821 820 820 820 820 820 820 820 820 820 819 819 819 819 818 818 817 817 816 816 816 816 816 816 816 816 815 814 814
748 731 721 720 717 722 730 735 749 770 773 750 749 787 803 790 787 784 780 779 773 765 764 765 764 765 767 767 768 769 771 773 776 776 777 779 781 784 788 790 792 795 798 801 804 805 807 808 810 811 812 813 815 815 816 817 817 818 819 819 819 819 820 820 820 820 820 820 820 820 820 820 820 820 820 820 820 819 819 819 818 818 817 817 816 816 815 815 815 815 815 815 815 814 814 814 813
746 717 712 722 719 723 724 725 742 754 754 750 746 762 789 798 788 774 774 782 781 773 768 765 763 764 765 764 764 766 768 770 773 775 775 777 779 782 786 789 791 793 797 799 802 804 806 807 809 810 811 812 813 815 815 816 817 817 818 818 818 819 819 819 820 820 820 819 820 820 820 820 820 820 820 820 819 819 819 818 818 817 817 816 815 815 815 815 815 814 814 814 814 814 813 812 812
732 707 710 719 720 724 720 723 738 740 751 768 754 749 779 793 778 767 771 780 785 780 771 765 763 762 762 762 761 762 763 765 768 773 774 774 777 781 784 787 790 792 795 798 800 803 805 806 808 809 810 812 812 814 814 815 816 816 817 817 817 818 818 819 819 819 819 819 819 820 820 820 820 820 820 819 819 819 818 818 817 817 816 816 815 815 814 814 814 813 813 813 813 813 812 811 810
717 705 712 714 717 724 724 730 738 740 760 778 758 750 778 790 776 774 780 780 780 773 764 761 759 758 759 759 759 759 760 763 765 768 770 773 776 779 782 785 789 791 794 797 800 802 804 806 807 809 809 810 811 812 813 814 815 815 816 816 816 817 817 818 818 818 819 819 819 819 819 819 819 819 819 819 818 818 818 817 817 817 816 815 815 814 814 814 813 813 813 813 812 811 811 811 810
705 709 717 716 720 727 732 736 741 759 777 773 754 748 769 786 776 769 772 768 761 760 760 759 755 754 756 756 756 756 758 761 764 766 767 770 774 777 781 784 787 790 793 796 799 800 803 805 806 808 809 809 810 811 812 813 814 814 815 815 816 816 817 817 817 818 818 818 818 819 819 819 819 818 818 818 818 817 817 816 816 816 816 815 815 814 814 813 813 813 812 812 811 811 811 811 811
708 720 727 734 740 743 752 753 755 782 790 767 750 742 755 780 770 749 746 742 740 748 754 753 751 751 752 753 753 752 755 758 761 765 766 768 772 775 778 782 784 789 792 794 797 799 801 803 806 807 808 808 809 810 811 812 813 814 814 814 815 815 816 816 816 817 817 817 818 818 818 818 818 818 818 817 817 817 816 816 816 815 815 815 814 814 813 813 812 812 811 811 810 810 810 810 810
717 729 738 757 768 771 782 780 775 787 781 755 743 742 753 764 747 730 729 727 727 733 736 740 743 745 746 747 749 749 751 755 759 762 764 766 769 772 775 779 782 786 790 792 795 797 799 802 804 805 806 807 808 809 810 811 812 812 813 813 814 814 815 815 815 816 816 816 817 817 817 818 817 817 817 816 816 816 816 815 815 815 814 814 814 813 813 812 812 811 811 810 810 810 809 809 809
725 736 745 762 775 790 802 793 785 786 771 747 737 745 758 754 732 720 720 715 713 717 722 726 729 735 739 739 743 746 747 752 757 759 762 764 766 769 772 776 780 784 787 789 792 794 796 799 802 804 805 806 807 808 809 810 811 811 812 812 813 813 814 814 815 815 815 816 816 817 817 817 817 816 816 816 816 815 815 815 814 814 814 814 813 813 813 812 812 811 810 810 809 809 809 808 808
727 726 734 750 759 780 795 788 786 783 767 748 741 750 761 756 735 715 709 706 704 710 715 716 720 726 731 733 738 744 745 749 754 756 758 761 763 767 770 773 777 781 784 786 789 791 793 796 799 801 803 805 806 807 808 809 810 810 811 811 812 813 813 813 814 814 814 815 815 816 816 816 816 816 815 815 815 815 814 814 814 813 813 813 812 812 812 811 811 810 810 809 809 809 808 808 808
726 716 731 743 736 747 766 766 762 762 763 756 749 747 740 734 725 708 706 710 709 713 715 717 723 725 728 735 738 741 744 746 750 753 756 758 760 765 769 772 775 778 782 784 785 788 790 793 796 798 800 803 805 806 807 808 808 809 809 810 811 811 812 812 813 813 813 814 814 814 814 815 814 814 814 814 814 814 814 813 813 812 812 812 811 811 811 810 810 809 809 808 808 808 807 807 807
724 726 739 729 708 718 748 759 747 751 771 765 750 748 734 728 729 712 709 719 717 720 722 721 726 727 731 738 738 741 743 743 746 750 753 756 758 762 766 769 773 775 779 781 782 784 786 789 793 796 798 801 803 804 805 806 807 808 808 809 810 811 811 811 811 812 812 812 813 813 813 813 813 813 813 813 813 813 813 812 812 812 811 810 810 810 809 809 809 808 808 807 807 807 806 806 805
720 733 728 712 708 715 734 757 760 764 779 764 747 752 747 746 747 723 715 727 726 726 728 725 726 730 736 738 737 739 739 740 743 746 750 754 756 760 763 766 769 772 775 778 780 782 784 786 790 792 795 798 801 803 804 805 806 807 807 808 809 810 810 811 811 811 811 811 812 812 812 812 812 812 812 812 812 812 812 811 811 810 810 809 809 808 808 808 807 807 806 806 806 806 805 805 804
702 710 701 708 737 742 740 758 770 776 783 769 754 751 744 744 746 732 728 732 730 729 730 729 729 731 735 736 736 737 736 738 742 744 748 750 753 757 760 764 767 770 773 775 778 781 782 785 787 790 792 795 799 801 802 804 804 805 806 807 808 809 809 810 810 810 810 811 811 811 811 811 811 811 811 811 811 811 811 810 810 809 809 808 808 807 807 806 806 805 805 805 804 804 804 803 803
694 698 696 703 722 733 737 747 758 770 781 776 766 760 749 735 727 729 732 728 727 732 732 732 731 728 730 732 733 736 737 739 742 745 746 746 750 754 757 761 764 767 770 773 776 779 780 783 786 788 790 793 797 799 800 802 803 804 805 806 807 808 808 809 809 809 810 810 810 810 810 810 810 810 810 810 810 809 809 809 809 808 808 807 807 806 806 805 804 804 803 803 803 802 802 802 801
711 718 720 716 714 718 726 734 740 752 769 775 772 770 757 730 714 721 727 722 722 727 730 732 730 725 725 727 729 732 734 736 740 743 742 743 748 752 755 759 761 764 768 770 773 776 778 782 784 786 788 790 794 797 798 800 801 803 804 805 806 807 808 808 808 809 809 809 809 809 808 808 807 808 808 808 808 808 808 808 807 807 806 806 806 805 805 804 803 802 802 801 801 800 800 800 799
707 719 723 720 718 723 739 749 739 736 752 762 764 771 761 728 712 718 721 719 720 721 725 729 727 724 724 724 725 727 728 730 733 734 737 741 745 750 754 756 759 762 764 766 769 772 775 779 782 784 786 788 791 794 796 798 800 801 802 804 805 806 807 807 807 808 808 808 808 807 806 806 805 806 806 806 806 806 806 806 806 805 805 805 804 804 803 803 802 801 801 800 799 799 798 798 798